Weather observations for the past three days for
Watauga County Hospital Heliport
Imperial (Metric)
Date Time (edt) Wind (mph) Vis. (mi.) Weather Sky Cond. Temperature (ºF) Relative Humidity Wind Chill (°F) Heat Index (°F) Pressure Precipitation (in)
Air Dwpt 6 hour altimeter (in) sea level (mb) 1 hr 3 hr 6 hr
Max. Min.
24 21:15 N 5 10.00 Fair CLR 70.9 51.3 50% 29.89 0.0
24 20:55 N 3 10.00 Fair CLR 72 50.5 47% 29.89 0.0
24 20:35 N 6 10.00 Fair CLR 73.4 50.4 44% 29.88 0.0
24 20:15 N 8 10.00 Fair CLR 74.3 51.1 44% 29.88 0.0
24 19:55 NW 6 G 16 10.00 Fair CLR 75 51.4 80.8 75 44% 78 29.87 0.0
24 19:35 NW 14 10.00 Fair CLR 75.9 52 43% 78 29.87 0.0
24 19:15 N 10 G 20 10.00 Partly Cloudy SCT050 76.1 52.5 44% 78 29.87 0.0
24 18:55 N 10 G 18 10.00 Mostly Cloudy BKN050 77.4 52.9 43% 79 29.86 0.0
24 18:35 N 8 G 17 10.00 Mostly Cloudy BKN055 77.7 53.4 43% 79 29.86 0.0
24 18:15 N 12 G 16 10.00 Partly Cloudy SCT055 78.8 53.6 42% 79 29.86 0.0
24 17:55 N 12 G 18 10.00 Partly Cloudy SCT055 76.8 52.7 43% 78 29.85 0.0
24 17:35 N 10 G 17 10.00 Partly Cloudy SCT055 79 51.4 38% 79 29.85 0.0
24 17:15 N 9 10.00 Fair CLR 78.4 50.7 38% 79 29.85 0.0
24 16:55 N 13 G 17 10.00 Fair CLR 78.8 50 37% 79 29.86 0.0
24 16:35 N 9 G 17 10.00 Partly Cloudy SCT060 78.8 50 37% 79 29.85 0.0
24 16:15 N 14 10.00 Fair CLR 77.4 52.2 42% 78 29.86 0.0
24 15:55 N 13 G 17 10.00 Partly Cloudy SCT055 78.6 52.5 40% 79 29.86 0.0
24 15:35 NW 15 G 23 10.00 Partly Cloudy SCT055 80.6 50.9 36% 80 29.86 0.0
24 15:15 NW 9 G 18 10.00 Fair CLR 79.9 49.1 34% 79 29.86 0.0
24 14:55 W 9 G 18 10.00 Fair CLR 80.6 52.2 37% 80 29.86 0.0
24 14:35 NW 7 G 22 10.00 Partly Cloudy SCT050 78.1 51.8 40% 79 29.86 0.0
24 14:15 NW 16 G 22 10.00 Partly Cloudy SCT050 79.7 52.5 39% 80 29.86 0.0
24 13:55 NW 7 G 16 10.00 Partly Cloudy SCT048 SCT050 78.8 52.9 79.2 69.8 41% 79 29.87 0.0
24 13:35 N 7 G 20 10.00 Mostly Cloudy BKN050 77.7 53.6 43% 79 29.87 0.0
24 13:15 NW 13 G 23 10.00 Partly Cloudy SCT050 78.4 52.7 41% 79 29.86 0.0
24 12:55 NW 14 G 23 10.00 Partly Cloudy SCT050 78.6 52.9 41% 79 29.86 0.0
24 12:35 NW 18 G 28 10.00 Partly Cloudy SCT046 78.1 52.5 41% 79 29.86 0.0
24 12:15 NW 15 G 23 10.00 Partly Cloudy SCT041 77 55.4 47% 79 29.86 0.0
24 11:55 NW 15 G 24 10.00 Partly Cloudy SCT039 SCT047 75.6 54.7 48% 78 29.86 0.0
24 11:35 NW 9 G 24 10.00 Partly Cloudy SCT034 SCT040 SCT047 75 55 50% 78 29.85 0.0
24 11:15 NW 17 G 26 10.00 Partly Cloudy SCT034 SCT044 73.6 55.8 54% 29.85 0.0
24 10:55 N 14 G 20 10.00 Mostly Cloudy SCT034 BKN046 74.1 57 55% 29.85 0.0
24 10:35 NW 14 G 20 10.00 Mostly Cloudy SCT032 BKN039 BKN046 73.6 57.9 58% 29.85 0.0
24 10:15 NW 13 G 20 7.00 Partly Cloudy SCT029 SCT035 SCT044 72.5 58.3 61% 29.85 0.0
24 09:55 NW 10 G 16 10.00 Partly Cloudy SCT029 SCT035 SCT044 71.8 58.6 63% 29.84 0.0
24 09:35 NW 12 G 21 10.00 Partly Cloudy SCT027 SCT032 72.3 58.8 63% 29.84 0.0
24 09:15 NW 16 G 22 10.00 Partly Cloudy SCT026 SCT032 SCT043 71.6 58.8 64% 29.83 0.0
24 08:55 NW 10 G 21 10.00 Partly Cloudy SCT024 SCT037 SCT043 70.9 59.2 67% 29.83 0.0
24 08:35 NW 9 G 16 10.00 Partly Cloudy SCT024 SCT030 SCT036 70.5 59.5 68% 29.83 0.0
24 08:15 NW 12 G 18 10.00 Partly Cloudy SCT025 SCT033 70.3 60.8 72% 29.82 0.0
24 07:55 NW 13 10.00 Partly Cloudy SCT034 69.8 61 72.9 69.1 74% 29.81 0.0
24 07:35 NW 13 G 18 10.00 Mostly Cloudy SCT019 SCT025 BKN035 69.8 61.9 76% 29.81 0.0
24 07:15 NW 13 G 18 10.00 Partly Cloudy SCT019 SCT024 69.4 62.4 78% 29.8 0.0
24 06:55 NW 16 G 25 10.00 Partly Cloudy SCT014 SCT022 SCT027 69.4 62.4 78% 29.79 0.0
24 06:35 NW 14 G 21 10.00 Mostly Cloudy SCT014 SCT022 BKN027 69.8 64 82% 29.79 0.0
24 06:15 NW 14 G 28 10.00 Fair CLR 69.3 63.7 83% 29.78 0.0
24 05:55 NW 16 G 24 10.00 Fair CLR 69.1 63.7 83% 29.77 0.0
24 05:35 NW 16 G 23 10.00 Fair CLR 69.1 63.9 84% 29.77 0.0
24 05:15 NW 13 G 26 10.00 Partly Cloudy SCT016 69.6 63.9 82% 29.77 0.0
24 04:55 NW 12 10.00 Overcast BKN013 OVC018 70 63.9 81% 29.77 0.0
24 04:35 W 9 10.00 Overcast OVC015 70.3 63.7 80% 29.78 0.0
24 04:15 W 6 10.00 Partly Cloudy SCT015 SCT020 70.2 63.5 80% 29.78 0.0
24 03:55 W 10 10.00 Fair CLR 70.2 63 78% 29.77 0.0
24 03:35 NW 9 G 18 10.00 Partly Cloudy SCT022 SCT029 70.9 62.6 75% 29.77 0.0
24 03:15 W 5 10.00 Partly Cloudy SCT024 SCT029 71.2 61.9 72% 29.79 0.0
24 02:55 W 6 G 9 10.00 Partly Cloudy SCT028 71.6 61.2 70% 29.79 0.0
24 02:35 W 6 10.00 Mostly Cloudy SCT028 BKN039 72.1 60.1 66% 29.79 0.0
24 02:15 W 7 10.00 Partly Cloudy SCT041 72.7 59.4 63% 29.79 0.0
24 01:55 W 8 G 16 10.00 Fair CLR 72.7 59.2 78.1 69.8 63% 29.79 0.0
24 01:35 W 10 G 17 10.00 Fair CLR 73.6 59 60% 29.8 0.0
24 01:15 W 9 10.00 Fair CLR 73.4 58.5 60% 29.8 0.0
24 00:55 W 8 10.00 Fair CLR 74.1 58.5 58% 29.8 0.0
24 00:35 W 9 10.00 Fair CLR 74.3 58.3 58% 29.8 0.0
24 00:15 W 7 10.00 Fair CLR 74.3 58.1 57% 29.8 0.0
23 23:55 W 5 10.00 Partly Cloudy SCT120 73.4 58.5 60% 29.81 0.0
23 23:35 Calm 10.00 Partly Cloudy SCT120 70.2 60.4 71% 29.81 0.0
23 23:15 Calm 10.00 Partly Cloudy SCT110 73.6 58.8 60% 29.81 0.0
23 22:55 Calm 10.00 Partly Cloudy SCT110 74.1 59 59% 29.81 0.0
23 22:35 W 6 10.00 Fair CLR 74.3 58.6 58% 29.82 0.0
23 22:15 SW 7 10.00 Fair CLR 75.2 58.1 55% 78 29.81 0.0
23 21:55 W 6 10.00 Fair CLR 75.7 58.1 54% 78 29.82 0.0
23 21:35 W 9 10.00 Fair CLR 75.6 58.1 55% 78 29.82 0.0
23 21:15 W 8 10.00 Partly Cloudy SCT095 75.6 58.5 55% 78 29.82 0.0
23 19:35 W 8 10.00 Fair CLR 78.4 59.2 52% 80 29.82 0.0
23 19:15 NW 13 G 17 10.00 Fair CLR 80.1 59.2 49% 81 29.82 0.0
23 18:55 NW 13 G 17 10.00 Fair CLR 79.7 59.2 50% 81 29.82 0.0
23 18:35 NW 9 G 16 10.00 Fair CLR 80.4 59 48% 81 29.82 0.0
23 17:55 NW 10 G 16 10.00 Fair CLR 79.7 58.6 49% 80 29.82 0.0
23 17:35 W 9 G 18 10.00 Fair CLR 80.6 57.7 46% 81 29.82 0.0
23 17:15 NW 10 G 16 10.00 Fair CLR 81.7 57.6 44% 82 29.82 0.0
23 16:55 NW 8 10.00 Fair CLR 81.7 56.7 42% 81 29.83 0.0
23 16:35 NW 13 10.00 Fair CLR 83.3 56.3 40% 83 29.82 0.0
23 16:15 NW 10 G 16 10.00 Partly Cloudy SCT070 83.3 55.8 39% 82 29.83 0.0
23 15:55 NW 10 G 16 10.00 Partly Cloudy SCT055 SCT070 83.5 55.9 39% 83 29.83 0.0
23 15:35 NW 8 10.00 Partly Cloudy SCT050 SCT070 85.3 56.7 38% 84 29.84 0.0
23 15:15 NW 10 10.00 Partly Cloudy SCT050 84.2 56.7 39% 83 29.85 0.0
23 14:55 NW 8 10.00 Partly Cloudy SCT050 SCT070 82.2 57.9 44% 82 29.86 0.0
23 14:35 NW 12 G 18 10.00 Partly Cloudy SCT050 83.7 57.2 41% 83 29.86 0.0
23 14:15 NW 14 G 20 10.00 Fair CLR 82.8 58.1 43% 83 29.87 0.0
23 13:55 W 13 G 24 10.00 Fair CLR 81.5 59.2 82.9 67.5 47% 82 29.88 0.0
23 13:35 NW 13 G 18 10.00 Fair CLR 82.4 59 45% 82 29.89 0.0
23 13:15 W 12 10.00 Partly Cloudy SCT040 81.1 59.7 48% 82 29.89 0.0
23 12:55 W 14 G 21 10.00 Partly Cloudy SCT042 SCT060 80.6 59.2 48% 81 29.91 0.0
23 12:35 NW 14 G 22 10.00 Partly Cloudy SCT046 SCT050 SCT075 79.7 59.2 50% 81 29.91 0.0
23 12:15 NW 13 G 25 10.00 Partly Cloudy SCT038 SCT050 SCT075 78.3 59 52% 80 29.91 0.0
23 11:55 W 15 G 24 10.00 Partly Cloudy SCT038 SCT050 79.7 60.1 51% 81 29.92 0.0
23 11:35 W 12 G 18 10.00 Partly Cloudy SCT036 SCT050 79.3 60.4 53% 80 29.92 0.0
23 11:15 NW 12 G 23 10.00 Partly Cloudy SCT035 78.3 60.8 55% 80 29.92 0.0
23 10:55 W 9 G 20 10.00 Fair CLR 77 61.3 59% 79 29.92 0.0
23 10:35 W 12 10.00 Fair CLR 77.2 61.5 59% 79 29.92 0.0
23 10:15 NW 13 G 17 10.00 Partly Cloudy SCT070 77.4 61.9 59% 79 29.93 0.0
23 09:55 W 12 G 17 10.00 Partly Cloudy SCT070 75.6 61.3 61% 78 29.93 0.0
23 09:35 W 7 10.00 Partly Cloudy SCT070 SCT080 76.1 61.7 61% 78 29.93 0.0
23 09:15 NW 10 10.00 Fair CLR 76.1 61.9 62% 78 29.93 0.0
23 08:55 W 8 10.00 Fair CLR 75.2 61.7 63% 77 29.92 0.0
23 08:35 W 9 10.00 Fair CLR 73.9 62.1 67% 29.92 0.0
23 08:15 Calm 10.00 Fair CLR 70 63.5 80% 29.92 0.0
23 07:55 Calm 10.00 Fair CLR 67.3 65.3 67.3 61.2 93% 29.92 0.0
23 07:35 Calm 10.00 Fair CLR 64.8 64.8 100% 29.93 0.0
23 07:15 Calm 10.00 Fair CLR 63.7 63.7 100% 29.93 0.0
23 06:55 Calm 10.00 Partly Cloudy SCT090 62.6 62.6 100% 29.93 0.0
23 06:35 Calm 10.00 Partly Cloudy SCT090 63.9 63.9 100% 29.93 0.0
23 06:15 Calm 10.00 Partly Cloudy SCT090 62.6 62.6 100% 29.93 0.0
23 05:55 Calm 10.00 Fair CLR 62.8 62.8 100% 29.93 0.0
23 05:35 Calm 10.00 Fair CLR 63.9 63.3 98% 29.93 0.0
23 05:15 Calm 10.00 Fair CLR 61.9 61.9 100% 29.93 0.0
23 04:55 Calm 10.00 Fair CLR 63.3 62.8 98% 29.94 0.0
23 04:35 SE 3 10.00 Fair CLR 62.1 62.1 100% 29.94 0.0
23 04:15 Calm 10.00 Partly Cloudy SCT075 62.2 62.1 99% 29.94 0.0
23 03:55 Calm 10.00 Partly Cloudy SCT075 64.4 62.4 93% 29.95 0.0
23 03:35 Calm 10.00 Partly Cloudy SCT075 62.4 59.4 90% 29.95 0.0
23 03:15 Calm 10.00 Fair CLR 64.2 59.2 84% 29.95 0.0
23 02:55 Calm 10.00 Fair CLR 64.4 59 83% 29.95 0.0
23 02:35 Calm 10.00 Fair CLR 62.8 58.6 86% 29.96 0.0
23 02:15 Calm 10.00 Fair CLR 65.5 59 80% 29.97 0.0
23 01:55 Calm 10.00 Fair CLR 63.7 58.5 79.3 63.3 83% 29.97 0.0
23 01:35 Calm 10.00 Fair CLR 63.5 57.9 82% 29.98 0.0
23 01:15 N 3 10.00 Fair CLR 64.6 58.1 80% 29.98 0.0
23 00:55 Calm 10.00 Fair CLR 64.9 58.1 79% 29.99 0.0
23 00:35 Calm 10.00 Fair CLR 65.5 57.9 77% 29.99 0.0
23 00:15 Calm 10.00 Fair CLR 64.6 58.1 80% 29.99 0.0
22 23:55 Calm 10.00 Fair CLR 66.2 58.3 76% 29.99 0.0
22 23:35 Calm 10.00 Fair CLR 67.3 58.5 73% 30 0.0
22 23:15 Calm 10.00 Fair CLR 66.2 58.6 77% 30 0.0
22 22:55 Calm 10.00 Fair CLR 66.4 58.6 76% 30 0.0
22 22:35 Calm 10.00 Fair CLR 67.5 58.3 73% 30 0.0
22 22:15 Calm 10.00 Fair CLR 67.3 58.8 74% 30 0.0
22 21:55 Calm 10.00 Fair CLR 70.7 58.1 65% 29.99 0.0
22 21:35 Calm 10.00 Fair CLR 71.6 58.3 63% 29.99 0.0
22 21:15 Calm 10.00 Fair CLR 73.6 57.4 57% 29.99 0.0
22 20:55 S 3 10.00 Fair CLR 76.1 56.3 50% 78 29.99 0.0
22 20:35 Calm 10.00 Fair CLR 76.5 57.2 51% 78 29.98 0.0
22 20:15 Calm 10.00 Fair CLR 79 56.5 46% 80 29.98 0.0
22 19:55 Calm 10.00 Fair CLR 79.2 57 85.6 79.2 47% 80 29.98 0.0
22 19:35 S 5 10.00 Fair CLR 80.6 55.8 43% 81 29.98 0.0
22 19:15 SE 3 10.00 Fair CLR 81.1 56.7 43% 81 29.98 0.0
22 18:55 Calm 10.00 Fair CLR 82.6 53.4 37% 82 29.98 0.0
22 18:35 SW 7 10.00 Fair CLR 83.7 51.6 33% 82 29.99 0.0
22 18:15 SW 5 10.00 Fair CLR 84 51.3 32% 82 29.99 0.0
22 17:55 SW 8 10.00 Fair CLR 84 53.1 34% 83 29.99 0.0
22 17:35 SW 5 10.00 Fair CLR 84.2 52 33% 82 30 0.0
22 17:15 S 3 10.00 Fair CLR 84 53.2 35% 83 30 0.0
22 16:55 SW 6 10.00 Fair CLR 84.7 52.5 33% 83 30 0.0
22 16:35 SW 7 10.00 Fair CLR 84.7 53.8 35% 83 30.01 0.0
22 16:15 S 3 10.00 Partly Cloudy SCT055 84.7 53.6 34% 83 30.02 0.0
22 15:55 SW 7 10.00 Partly Cloudy SCT055 84.2 53.6 35% 83 30.03 0.0
22 15:35 SW 7 10.00 Partly Cloudy SCT055 84.2 55 37% 83 30.03 0.0
22 15:15 S 6 10.00 Fair CLR 84.7 56.3 38% 84 30.04 0.0
22 14:55 S 6 10.00 Fair CLR 85.1 56.1 37% 84 30.04 0.0
22 14:35 S 6 10.00 Fair CLR 84.2 55.8 38% 83 30.05 0.0
22 14:15 SE 6 10.00 Fair CLR 83.3 56.8 41% 83 30.06 0.0
22 13:55 SW 7 10.00 Fair CLR 83.5 56.3 83.7 59.9 40% 83 30.06 0.0
22 13:35 S 7 10.00 Partly Cloudy SCT048 82.8 57.4 42% 82 30.07 0.0
22 13:15 S 7 10.00 Partly Cloudy SCT043 SCT050 SCT055 82.4 58.5 44% 82 30.07 0.0
22 12:55 S 7 10.00 Mostly Cloudy SCT043 BKN050 83.3 59.9 45% 83 30.08 0.0
22 12:35 S 5 10.00 Partly Cloudy SCT047 78.8 58.6 50% 80 30.08 0.0
22 12:15 E 7 10.00 Fair CLR 80.8 58.1 46% 81 30.07 0.0
22 11:55 SE 6 10.00 Fair CLR 82 52 35% 81 30.08 0.0
22 11:35 Calm 10.00 Fair CLR 80.2 51.3 37% 80 30.09 0.0
22 11:15 Calm 10.00 Fair CLR 78.8 55.9 45% 80 30.09 0.0
22 10:55 W 6 10.00 Fair CLR 77.5 55.2 46% 79 30.09 0.0
22 10:35 W 8 10.00 Fair CLR 76.5 55 48% 78 30.1 0.0
22 10:15 W 9 10.00 Fair CLR 75.9 55.4 49% 78 30.11 0.0
22 09:55 NW 7 10.00 Fair CLR 74.7 55.8 52% 30.1 0.0
22 09:35 W 7 10.00 Fair CLR 73 56.1 56% 30.1 0.0
22 09:15 NW 6 10.00 Fair CLR 71.1 57.9 63% 30.11 0.0
22 08:55 Calm 10.00 Fair CLR 66.7 59.9 79% 30.12 0.0
22 08:35 Calm 10.00 Fair CLR 64.4 59.2 83% 30.12 0.0
22 08:15 Calm 10.00 Fair CLR 61.2 61 99% 30.12 0.0
22 07:55 Calm 10.00 Fair CLR 59.5 59.5 59.5 54.5 100% 30.12 0.0
22 07:35 Calm 10.00 Fair CLR 57.6 57.6 100% 30.12 0.0
22 07:15 Calm 10.00 Fair CLR 56.1 56.1 100% 30.12 0.0
22 06:55 Calm 7.00 Fair CLR 54.5 54.5 100% 30.12 0.0
22 06:35 Calm 10.00 Fair CLR 55.8 55.8 100% 30.12 0.0
22 06:15 Calm 7.00 Fair CLR 54.5 54.5 100% 30.12 0.0
22 05:55 Calm 5.00 Fog/Mist CLR 55 55 100% 30.12 0.0
22 05:35 Calm 7.00 Fair CLR 54.9 54.9 100% 30.12 0.0
22 05:15 Calm 7.00 Fair CLR 54.5 54.5 100% 30.12 0.0
22 04:55 Calm 7.00 Fair CLR 54.9 54.9 100% 30.12 0.0
22 04:35 Calm 5.00 Fog/Mist CLR 55.8 55.8 100% 30.12 0.0
22 04:15 Calm 7.00 Fair CLR 56.5 56.5 100% 30.12 0.0
22 03:55 Calm 10.00 Fair CLR 56.8 56.8 100% 30.12 0.0
22 03:35 Calm 10.00 Fair CLR 57 57 100% 30.12 0.0
22 03:15 Calm 7.00 Fair CLR 56.8 56.8 100% 30.13 0.0
22 02:55 Calm 10.00 Fair CLR 57.9 57.9 100% 30.13 0.0
22 02:35 Calm 7.00 Fair CLR 58.1 58.1 100% 30.13 0.0
22 02:15 Calm 10.00 Fair CLR 58.8 58.8 100% 30.14 0.0
22 01:55 Calm 10.00 Fair CLR 59 59 76.3 59 100% 30.14 0.0
22 01:35 Calm 10.00 Fair CLR 59.5 59.5 100% 30.14 0.0
22 01:15 Calm 10.00 Fair CLR 60.1 60.1 100% 30.15 0.0
22 00:55 Calm 10.00 Fair CLR 61.2 61.2 100% 30.15 0.0
22 00:35 Calm 10.00 Fair CLR 61.9 60.8 96% 30.16 0.0
22 00:15 Calm 10.00 Fair CLR 61.5 61.5 100% 30.16 0.0
21 23:55 Calm 10.00 Fair CLR 61.7 61.7 100% 30.16 0.0
21 23:35 Calm 10.00 Fair CLR 61.9 61.7 99% 30.16 0.0
21 23:15 Calm 10.00 Fair CLR 64 62.6 95% 30.16 0.0
21 22:55 Calm 10.00 Fair CLR 64 60.1 87% 30.15 0.0
21 22:35 Calm 10.00 Fair CLR 63.7 60.6 90% 30.15 0.0
21 22:15 Calm 10.00 Fair CLR 64.4 60.1 86% 30.14 0.0
21 21:55 Calm 10.00 Fair CLR 65.3 59.7 82% 30.14 0.0
Date Time (edt) Wind (mph) Vis. (mi.) Weather Sky Cond. Air Dwpt Max. Min. Relative Humidity Wind Chill (°F) Heat Index (°F) altimeter (in) sea level (mb) 1 hr 3 hr 6 hr
6 hour
Temperature (ºF) Pressure Precipitation (in)